Regional Weather Roundup
Issued by NWS

Home | Current Version | Previous Version | Graphics & Text | Print | Product List | Glossary Off
Versions: 1 2 3 4 5 6 7 8 9 10 11 12 13 14 15 16 17 18 19 20 21 22 23 24 25 26 27 28 29 30 31 32 33 34 35 36 37 38 39 40 41 42 43 44 45 46 47 48 49 50

000
ASUS43 KMKX 260418
RWRWI

WISCONSIN REGIONAL WEATHER ROUNDUP
NATIONAL WEATHER SERVICE MILWAUKEE/SULLIVAN WI
1100 PM CDT MON MAY 25 2015

NOTE: "FAIR" INDICATES FEW OR NO CLOUDS BELOW 12,000 FEET WITH NO
SIGNIFICANT WEATHER AND/OR OBSTRUCTIONS TO VISIBILITY.

WIZ001-002-006>008-014>016-023>028-260500-
NORTHWEST WISCONSIN

CITY           SKY/WX    TMP DP  RH WIND       PRES   REMARKS
SUPERIOR ARPT  CLOUDY    46  46  99 CALM      29.78F
ASHLAND        MOCLDY    50  50 100 CALM      29.77S FOG
HAYWARD        MOCLDY    57  55  93 CALM      29.76F
SIREN          CLEAR     55  54  96 CALM      29.77R FOG
CUMBERLAND     CLEAR     59  55  88 S5        29.78R
RICE LAKE      CLEAR     61  57  88 S5        29.79R
CHETEK         PTCLDY    60  59  98 SE6       29.79R
LADYSMITH      CLOUDY    64  60  88 S5        29.81R
EAU CLAIRE     PTCLDY    62  61  96 CALM      29.78R FOG
MENOMONIE      PTCLDY    64  61  93 CALM      29.79R
NEW RICHMOND   CLEAR     62  61  97 S5        29.78R
OSCEOLA        PTCLDY    58  58  99 S3        29.80R
$$

WIZ003>005-009-010-017-018-260500-
NORTH CENTRAL WISCONSIN

CITY           SKY/WX    TMP DP  RH WIND       PRES   REMARKS
MANITOWISH WTR PTCLDY    58  58 100 S5        29.78F
ARBOR VITAE    PTCLDY    59  57  92 S3        29.79F
WOODRUFF       PTCLDY    59  57  92 S3        29.79F
RHINELANDER    MOCLDY    62  59  90 SW7       29.82R
EAGLE RIVER    MOCLDY    60  58  94 CALM      29.80S
LAND O LAKES   PTCLDY    58  57  96 CALM      29.80S
PHILLIPS       CLOUDY    60  58  94 S5        29.80R
TOMAHAWK       CLOUDY    60  58  95 CALM      29.82S
MEDFORD        CLOUDY    59  58  98 CALM      29.81S
MERRILL        FOG       56  56 100 CALM      29.83S VSB 1/2
$$

WIZ029-030-035-036-043>047-260500-
CENTRAL WISCONSIN

CITY           SKY/WX    TMP DP  RH WIND       PRES   REMARKS
WAUSAU         MOCLDY    58  57  97 SE5       29.82R
MOSINEE        MOCLDY    59  59 100 S7        29.84S
MARSHFIELD     PTCLDY    61  58  90 S8        29.83R
STEVENS POINT  PTCLDY    60  59  97 CALM      29.85R
WAUPACA        FAIR      63  62  98 CALM      29.85R
WAUTOMA        MOCLDY    64  64 100 CALM      29.86R
WISC RAPIDS    PTCLDY    62  59  90 S6        29.85R
CAMP DOUGLAS   PTCLDY    67  67 100 S8        29.83S
$$

WIZ011>013-019>022-031-037>040-048>050-260500-
NORTHEAST WISCONSIN

CITY           SKY/WX    TMP DP  RH WIND       PRES   REMARKS
ANTIGO         CLEAR     56  56 100 CALM      29.84R
SHAWANO        MOCLDY    64  61  90 S3        29.84R
OCONTO         PTCLDY    64  62  95 SW3       29.82S
STURGEON BAY   PTCLDY    64  61  88 S8        29.86S
GREEN BAY      PTCLDY    64  61  90 S5        29.85R
MANITOWOC      CLEAR     71  61  70 SW9       29.87R
APPLETON       NOT AVBL
CLINTONVILLE   CLOUDY    63  61  94 S3        29.84R
OSHKOSH        PTCLDY    69  60  73 S12       29.86R
$$

WIZ032>034-041-042-053>061-260500-
SOUTHWEST WISCONSIN

CITY           SKY/WX    TMP DP  RH WIND       PRES   REMARKS
LA CROSSE      PTCLDY    70  59  68 S12       29.79S
SPARTA         PTCLDY    64  61  93 S3        29.82S
VIROQUA        PTCLDY    68  62  79 S12       29.85F
BOSCOBEL       PTCLDY    70  62  76 VRB3      29.86R
PRAIRIE DU CHI MOCLDY    71  61  69 S10       29.86R
PLATTEVILLE    CLEAR     68  63  83 S10       29.91R
$$

WIZ056-057-062-063-064-067-068-260500-
SOUTH CENTRAL WISCONSIN

CITY           SKY/WX    TMP DP  RH WIND       PRES   REMARKS
REEDSBURG      MOCLDY    68  62  79 S12G17    29.85F
BARABOO/DELLS  MOCLDY    68  59  72 S10       29.87S
LONE ROCK      PTCLDY    69  61  75 S5        29.88R
MINERAL POINT  PTCLDY    70  61  73 S8        29.91R
MADISON        PTCLDY    70  59  68 S8        29.89R
MIDDLETON      PTCLDY    71  58  64 SW9       29.90R
WATERTOWN      PTCLDY    68  63  84 S6        29.89S
MONROE         PTCLDY    66  61  82 S9        29.92R
JANESVILLE     PTCLDY    70  59  68 S7        29.91S
$$

WIZ051-052-058>065-066-070>072-260500-
SOUTHEAST WISCONSIN

CITY           SKY/WX    TMP DP  RH WIND       PRES   REMARKS
MILWAUKEE      PTCLDY    71  60  68 SW12      29.92R
WAUKESHA       PTCLDY    66  59  77 S5        29.93S
MILWAUKEE/TIMM PTCLDY    70  57  64 SW9G16    29.91S
RACINE         CLEAR     71  59  65 SW10      29.95R
BURLINGTON     PTCLDY    64  59  84 S5        29.93S
KENOSHA        CLEAR     69  60  73 S8        29.94R
FOND DU LAC    PTCLDY    69  59  70 S9        29.88R
SHEBOYGAN      CLEAR     67  61  81 SW9       29.89R
WEST BEND      PTCLDY    68  59  73 S6        29.91R
JUNEAU         PTCLDY    67  59  75 S8        29.90S
$$

LSZ147-162-260500-
LAKE SUPERIOR

STATION/POSITION TIME  TEMP    WIND        PRES    WAVE
                       AIR SEA DIR/SP/G            HT/PER
                 (UTC) (F)     (DEG/KT/KT) (MB)    (FT/S)
W MID LAKE BUOY  0350   38 36  260/  4/  4 1085.0R   2/ 4
DEVILS ISLAND    0400   42     310/  6/  6   N/A
PORT WING        0340   44      CALM  /  2   N/A
SAXON HARBOR     0300   48        CALM     1078.0R
$$

LMZ867-665-643>646-260500-
LAKE MICHIGAN

STATION/POSITION TIME  TEMP    WIND        PRES    WAVE
                       AIR SEA DIR/SP/G            HT/PER
                 (UTC) (F)     (DEG/KT/KT) (MB)    (FT/S)
CHAMBERS ISLAND  0300   62     170/  6/ 11   N/A
N MID LAKE BUOY  0350   43 37  210/ 10/ 14   N/A     3/ 6
NORTHPORT PIER   0300   60     180/  4/  7   N/A
SISTER BAY       0317   66     210/ 13/ 16   N/A
KEWAUNEE LAKESHO 0300   67     220/  6/  8   N/A
SHEBOYGAN LAKESH 0400   69     200/ 14/ 15   N/A
PORT WASHINGTON  0300   71     210/  7/  9   N/A
ATWATER BUOY     0300   58 45  160/  8/ 10   N/A
MILWAUKEE LAKESH 0300   72     200/ 10/ 12   N/A
S MID LAKE BUOY  0350   48 38  190/ 10/ 12   N/A     1/ 4
KENOSHA   LAKESH 0400   72     200/  9/ 10   N/A
$$

TC  - TEMPERATURE IN CELSIUS
VSB - VISIBILITY IN STATUTE MILES
WCI - WIND CHILL INDEX
HX  - HEAT INDEX



USA.gov is the U.S. government's official web portal to all federal, state and local government web resources and services.